FW5335 Weather Reports


time (UTC)temp
C
wind
direction
speed
KPH
gust
KPH
rain 1hr
cm
rain 24hr
cm
rain mn
cm
humidity
%
barometer
mb
20260508142518 20 203 9.7 19.3 0.00 0.00 0.00 51 1016.4
20260508141518 19 180 9.7 19.3 0.00 0.00 0.00 52 1016.3
20260508140518 20 203 11.3 19.3 0.00 0.00 0.00 49 1016.3
20260508135518 20 180 8.0 14.5 0.00 0.00 0.00 50 1016.3
20260508134518 20 203 9.7 16.1 0.00 0.00 0.00 48 1016.2
20260508133523 19 203 9.7 19.3 0.00 0.00 0.00 49 1016.3
20260508132520 19 180 9.7 16.1 0.00 0.00 0.00 49 1016.3
20260508131543 19 203 9.7 17.7 0.00 0.00 0.00 51 1016.3
20260508130520 19 180 6.4 17.7 0.00 0.00 0.00 50 1016.4
20260508125521 19 180 8.0 17.7 0.00 0.00 0.00 51 1016.3
20260508124543 20 203 8.0 17.7 0.00 0.00 0.00 50 1016.2
20260508123520 20 203 9.7 19.3 0.00 0.00 0.00 49 1016.4
20260508122600 18 203 9.7 17.7 0.00 0.00 0.00 53 1016.3
20260508121520 18 180 12.9 24.1 0.00 0.00 0.00 53 1016.4
20260508120521 18 203 11.3 19.3 0.00 0.00 0.00 53 1016.5
20260508115520 18 203 11.3 19.3 0.00 0.00 0.00 54 1016.4
20260508114520 18 203 9.7 17.7 0.00 0.00 0.00 53 1016.4
20260508113520 18 203 8.0 17.7 0.00 0.00 0.00 54 1016.3
20260508112545 18 180 6.4 17.7 0.00 0.00 0.00 50 1016.5
20260508111521 18 113 9.7 17.7 0.00 0.00 0.00 53 1016.3
20260508110525 18 135 9.7 20.9 0.00 0.00 0.00 56 1016.4
20260508105518 18 135 8.0 14.5 0.00 0.00 0.00 55 1016.4
20260508104640 17 135 11.3 22.5 0.00 0.00 0.00 58 1016.0
20260508103520 17 158 11.3 22.5 0.00 0.00 0.00 61 1016.1
20260508102520 16 68 3.2 8.0 0.00 0.00 0.00 69 1015.9
20260508101520 16 68 6.4 19.3 0.00 0.00 0.00 67 1016.4
20260508100519 17 135 4.8 12.9 0.00 0.00 0.00 68 1016.2
20260508095526 16 23 3.2 8.0 0.00 0.00 0.00 70 1016.3
20260508094520 16 68 4.8 11.3 0.00 0.00 0.00 71 1016.4
20260508093540 16 68 6.4 14.5 0.00 0.00 0.00 71 1016.2
20260508092525 16 90 8.0 14.5 0.00 0.00 0.00 72 1016.2
20260508091519 15 45 4.8 12.9 0.00 0.00 0.00 75 1016.1
20260508090519 15 113 4.8 12.9 0.00 0.00 0.00 75 1016.2
20260508085520 15 113 9.7 12.9 0.00 0.00 0.00 74 1016.1
20260508084519 15 113 4.8 9.7 0.00 0.00 0.00 77 1016.1
20260508083523 14 113 4.8 9.7 0.00 0.00 0.00 79 1015.9
20260508082520 13 90 4.8 12.9 0.00 0.00 0.00 78 1016.2
20260508081519 13 113 4.8 9.7 0.00 0.00 0.00 81 1016.1
20260508080539 12 113 4.8 11.3 0.00 0.00 0.00 82 1016.2
20260508075539 12 68 4.8 9.7 0.00 0.00 0.00 82 1016.1
20260508074519 12 68 4.8 9.7 0.00 0.00 0.00 83 1016.0
20260508073519 12 68 4.8 8.0 0.00 0.00 0.00 84 1015.8
20260508072559 11 68 4.8 8.0 0.00 0.00 0.00 84 1015.8
20260508071540 11 90 4.8 12.9 0.00 0.00 0.00 84 1015.7
20260508070539 11 68 3.2 6.4 0.00 0.00 0.00 84 1015.7
20260508065520 11 90 6.4 12.9 0.00 0.00 0.00 85 1015.5
20260508064519 11 68 6.4 11.3 0.00 0.00 0.00 85 1015.6
20260508063538 10 68 4.8 9.7 0.00 0.00 0.00 87 1015.5
20260508062519 10 68 4.8 9.7 0.00 0.00 0.00 88 1015.6
20260508061519 10 90 3.2 8.0 0.00 0.00 0.00 87 1015.4
20260508060525 10 68 4.8 6.4 0.00 0.00 0.00 87 1015.4
20260508055519 10 90 1.6 3.2 0.00 0.00 0.00 87 1015.4
20260508054518 9 90 1.6 3.2 0.00 0.00 0.00 87 1015.3
20260508053519 9 90 3.2 6.4 0.00 0.00 0.00 87 1015.1
20260508052519 10 90 4.8 11.3 0.00 0.00 0.00 86 1015.3
20260508051519 10 90 4.8 11.3 0.00 0.00 0.00 86 1015.3
20260508050518 10 68 4.8 11.3 0.00 0.00 0.00 86 1015.3
20260508045519 10 90 3.2 9.7 0.00 0.00 0.00 86 1015.4
20260508044524 10 90 6.4 11.3 0.00 0.00 0.00 85 1014.9
20260508043524 10 90 4.8 8.0 0.00 0.00 0.00 85 1014.9
20260508042524 10 90 3.2 6.4 0.00 0.00 0.00 85 1015.0
20260508041546 10 68 4.8 11.3 0.00 0.00 0.00 84 1014.9
20260508040519 10 68 3.2 6.4 0.00 0.00 0.00 84 1015.0
20260508035523 10 68 4.8 11.3 0.00 0.00 0.00 84 1014.9
20260508034519 10 68 3.2 6.4 0.00 0.00 0.00 83 1015.1
20260508033517 10 90 3.2 8.0 0.00 0.00 0.00 83 1015.1
20260508032518 10 90 4.8 9.7 0.00 0.00 0.00 83 1015.2
20260508031538 10 90 3.2 6.4 0.00 0.00 0.00 82 1015.3
20260508030518 10 90 3.2 6.4 0.00 0.00 0.00 82 1015.4
20260508025518 10 68 3.2 4.8 0.00 0.00 0.00 82 1015.3
20260508024519 10 90 1.6 6.4 0.00 0.00 0.00 82 1015.2
20260508023519 10 90 1.6 4.8 0.00 0.00 0.00 81 1015.3
20260508022519 10 90 1.6 4.8 0.00 0.00 0.00 80 1015.4
20260508021519 10 90 1.6 3.2 0.00 0.00 0.00 80 1015.4
20260508020539 10 90 1.6 3.2 0.00 0.00 0.00 80 1015.3
20260508015542 10 90 3.2 6.4 0.00 0.00 0.00 79 1015.5
20260508014519 10 90 1.6 4.8 0.00 0.00 0.00 78 1015.5
20260508013518 10 0.0 1.6 0.00 0.00 0.00 78 1015.5
20260508012519 10 90 3.2 6.4 0.00 0.00 0.00 77 1015.4
20260508011520 10 68 1.6 3.2 0.00 0.00 0.00 76 1015.6
20260508010518 10 68 3.2 6.4 0.00 0.00 0.00 75 1015.3
20260508005519 10 68 3.2 4.8 0.00 0.00 0.00 74 1015.7
20260508004543 10 68 1.6 3.2 0.00 0.00 0.00 74 1015.7
20260508003544 10 0.0 3.2 0.00 0.00 0.00 73 1015.6
20260508002517 11 68 3.2 4.8 0.00 0.00 0.00 73 1015.7
20260508001518 11 68 3.2 4.8 0.00 0.00 0.00 73 1015.8
20260508000518 11 68 1.6 4.8 0.00 0.00 0.00 71 1015.9
20260507235519 11 90 3.2 4.8 0.00 0.00 0.00 71 1015.9
20260507234542 11 68 3.2 4.8 0.00 0.00 0.00 70 1015.9
20260507233559 11 68 1.6 4.8 0.00 0.00 0.00 70 1016.0
20260507232524 11 68 3.2 6.4 0.00 0.00 0.00 70 1016.1
20260507231519 11 68 3.2 6.4 0.00 0.00 0.00 70 1016.0
20260507230542 11 135 1.6 4.8 0.00 0.00 0.00 69 1016.0
20260507225518 11 135 1.6 4.8 0.00 0.00 0.00 69 1015.9
20260507224519 11 135 1.6 4.8 0.00 0.00 0.00 67 1015.8
20260507223519 11 0.0 3.2 0.00 0.00 0.00 66 1015.8
20260507222519 11 135 1.6 3.2 0.00 0.00 0.00 66 1015.9
20260507221519 11 135 1.6 4.8 0.00 0.00 0.00 66 1015.9
20260507220538 11 135 3.2 6.4 0.00 0.00 0.00 67 1016.1
20260507215525 11 135 1.6 6.4 0.00 0.00 0.00 70 1016.1
20260507214520 11 135 1.6 4.8 0.00 0.00 0.00 72 1016.2
20260507213543 11 0.0 3.2 0.00 0.00 0.00 70 1016.2
20260507212519 11 135 1.6 4.8 0.00 0.00 0.00 69 1016.1
20260507211523 11 0.0 0.0 0.00 0.00 0.00 69 1016.1
20260507210518 11 0.0 0.0 0.00 0.00 0.00 70 1016.1
20260507205519 11 135 1.6 3.2 0.00 0.00 0.00 70 1016.0
20260507204518 11 0.0 3.2 0.00 0.00 0.00 70 1015.9
20260507203523 12 135 1.6 3.2 0.00 0.00 0.00 69 1015.8
20260507202519 12 0.0 1.6 0.00 0.00 0.00 67 1015.7
20260507201518 12 0.0 1.6 0.00 0.00 0.00 64 1015.6
20260507200524 12 135 1.6 3.2 0.00 0.00 0.00 63 1015.7
20260507195517 12 135 1.6 3.2 0.00 0.00 0.00 64 1015.6
20260507194519 12 135 3.2 4.8 0.00 0.00 0.00 61 1015.4
20260507193518 12 135 1.6 4.8 0.00 0.00 0.00 62 1015.4
20260507192518 12 135 1.6 3.2 0.00 0.00 0.00 62 1015.3
20260507191518 13 135 1.6 3.2 0.00 0.00 0.00 64 1015.4
20260507190521 13 135 1.6 4.8 0.00 0.00 0.00 63 1015.4
20260507185519 13 158 1.6 3.2 0.00 0.00 0.00 63 1015.3
20260507184519 13 203 1.6 9.7 0.00 0.00 0.00 63 1015.2
20260507183519 13 203 1.6 6.4 0.00 0.00 0.00 62 1015.1
20260507182518 13 203 3.2 4.8 0.00 0.00 0.00 61 1015.3
20260507181525 13 203 4.8 8.0 0.00 0.00 0.00 60 1015.2
20260507180522 13 203 6.4 12.9 0.00 0.00 0.00 58 1015.5
20260507175518 14 203 6.4 12.9 0.00 0.00 0.00 57 1015.3
20260507174518 14 180 4.8 11.3 0.00 0.00 0.00 57 1015.3
20260507173543 14 225 6.4 12.9 0.00 0.00 0.00 56 1015.4
20260507172518 15 203 8.0 12.9 0.00 0.00 0.00 54 1015.4
20260507171518 15 203 8.0 12.9 0.00 0.00 0.00 54 1015.3
20260507170517 15 180 8.0 16.1 0.00 0.00 0.00 52 1015.2
20260507165518 15 180 6.4 12.9 0.00 0.00 0.00 52 1015.3
20260507164518 15 203 8.0 16.1 0.00 0.00 0.00 52 1015.5
20260507163518 15 180 6.4 14.5 0.00 0.00 0.00 50 1015.4
20260507162518 16 180 8.0 20.9 0.00 0.00 0.00 50 1015.4
20260507161543 16 135 9.7 16.1 0.00 0.00 0.00 49 1015.5
20260507160518 16 203 6.4 14.5 0.00 0.00 0.00 51 1015.5
20260507155518 16 203 8.0 14.5 0.00 0.00 0.00 53 1015.5
20260507154520 16 203 6.4 11.3 0.00 0.00 0.00 52 1015.7
20260507153520 16 180 9.7 19.3 0.00 0.00 0.00 49 1015.6
20260507152519 16 203 9.7 22.5 0.00 0.00 0.00 52 1015.6
20260507151518 16 203 9.7 16.1 0.00 0.00 0.00 50 1015.7
20260507150520 16 203 11.3 22.5 0.00 0.00 0.00 49 1015.7
20260507145522 16 203 12.9 20.9 0.00 0.00 0.00 47 1015.8
20260507144520 16 203 12.9 22.5 0.00 0.00 0.00 45 1015.7
20260507143544 17 203 14.5 27.4 0.00 0.00 0.00 46 1015.8